Location: STAR School
(35.3054°N, 111.2976°W)
Time: 07:01:37
(UTC-07:00)

Vanguard 3 - Visible Passes

Search period start: 15 October 2019 00:00
Search period end: 25 October 2019 00:00
Orbit: 508 x 3262 km, 33.3° (Epoch: 14 October)

Date Brightness Start Highest point End Pass type
(mag) Time Alt. Az. Time Alt. Az. Time Alt. Az.
15 Oct 8.0 03:44:56 53° ESE 03:44:56 53° ESE 03:51:36 10° E visible
15 Oct 8.7 05:49:31 11° W 05:55:49 53° SSW 06:07:24 10° SE visible
16 Oct 10.1 02:35:18 12° E 02:35:18 12° E 02:35:47 10° E visible
16 Oct 7.6 04:39:52 48° WSW 04:41:29 63° S 04:50:56 10° ESE visible
17 Oct 8.7 03:30:14 35° ESE 03:30:14 35° ESE 03:34:49 10° ESE visible
17 Oct 8.6 05:34:49 16° W 05:39:41 45° SSW 05:49:51 10° SE visible
18 Oct 7.6 04:25:12 55° SSW 04:25:30 55° SSW 04:33:51 10° ESE visible
19 Oct 9.4 03:15:37 21° ESE 03:15:37 21° ESE 03:18:09 10° ESE visible
19 Oct 8.5 05:20:12 21° WSW 05:23:38 36° SSW 05:32:18 10° SE visible
20 Oct 8.1 04:10:37 42° SSE 04:10:37 42° SSE 04:16:50 10° ESE visible
21 Oct 10.0 03:01:04 12° ESE 03:01:04 12° ESE 03:01:34 10° ESE visible
21 Oct 8.5 05:05:39 24° SW 05:07:39 28° SSW 05:14:46 10° SE visible
22 Oct 8.9 03:56:07 26° SSE 03:56:07 26° SSE 03:59:51 10° SE visible
22 Oct 9.4 06:02:14 10° WSW 06:05:59 15° SSW 06:10:52 10° S visible
23 Oct 8.8 04:51:11 21° SSW 04:51:43 21° SSW 04:57:08 10° SSE visible
24 Oct 9.6 03:41:40 14° SE 03:41:40 14° SE 03:42:54 10° SE visible
24 Oct 9.6 19:45:59 10° S 19:49:00 14° SSE 19:49:00 14° SSE visible
